This demonstration page uses our WeatherBlox Daily Observations layout. Learn more.

Left ArrowRight Arrow

39.01783, -85.05884

Hourly Observations for September 7, 2018

Temp ( °F °C ) Dew Point ( °F °C ) Humidity (%) Winds ( mph kmh ) Pressure ( in mb ) Visibility ( mi km ) Precip ( " mm )
12:52 am 00:52 Cloudy 74 23.3 71 21.7 91 91 N N/A 30.14 1021 10 16 N/A
1:52 am 01:52 Cloudy with Patchy Fog 72 22.2 72 22.2 100 100 NE 3 6 30.15 1021 4 6 N/A
2:52 am 02:52 Cloudy 73 22.8 70 21.1 90 90 NNE 6 9 30.15 1021 10 16 N/A
3:52 am 03:52 Cloudy 73 22.8 70 21.1 90 90 NNE 6 9 30.14 1021 10 16 N/A
4:52 am 04:52 Cloudy 73 22.8 71 21.7 94 94 ENE 6 9 30.13 1020 9 14 N/A
5:52 am 05:52 Cloudy 73 22.8 71 21.7 94 94 NNE 5 7 30.14 1021 8 13 N/A
6:52 am 06:52 Cloudy 72 22.2 71 21.7 97 97 N 3 6 30.14 1021 8 13 N/A
7:52 am 07:52 Cloudy 73 22.8 71 21.7 94 94 NE 6 9 30.14 1021 8 13 N/A
8:07 am 08:07 Cloudy 73 22.8 71 21.7 94 94 E 6 9 30.15 1021 7 11 N/A
8:52 am 08:52 Cloudy 74 23.3 72 22.2 94 94 E 6 9 30.15 1021 7 11 N/A
8:56 am 08:56 Cloudy with Mist and Fog 74 23.3 72 22.2 94 94 E 8 13 30.15 1021 6 10 N/A
9:52 am 09:52 Cloudy with Mist and Fog 74 23.3 72 22.2 94 94 E 6 9 30.15 1021 5 8 N/A
10:52 am 10:52 Cloudy with Mist and Fog 75 23.9 72 22.2 90 90 ENE 7 11 30.15 1021 6 10 N/A
11:33 am 11:33 Cloudy 76 24.4 72 22.2 88 88 E 6 9 30.15 1021 7 11 N/A
11:52 am 11:52 Cloudy 76 24.4 72 22.2 88 88 NNE 8 13 30.14 1021 7 11 N/A
12:01 pm 12:01 Cloudy with Mist and Fog 76 24.4 72 22.2 88 88 NNE 7 11 30.15 1021 6 10 N/A
12:52 pm 12:52 Mostly Cloudy 81 27.2 72 22.2 74 74 ENE 7 11 30.12 1020 8 13 N/A
1:52 pm 13:52 Cloudy 80 26.7 72 22.2 76 76 N 6 9 30.11 1020 9 14 N/A
2:52 pm 14:52 Cloudy 82 27.8 72 22.2 72 72 NNE 5 7 30.09 1019 9 14 N/A
3:52 pm 15:52 Cloudy 82 27.8 72 22.2 72 72 NNE 8 13 30.06 1018 10 16 N/A
4:52 pm 16:52 Cloudy 83 28.3 71 21.7 67 67 NNE 10 17 30.04 1017 10 16 N/A
5:52 pm 17:52 Cloudy 81 27.2 72 22.2 74 74 NE 9 15 30.04 1017 10 16 N/A
6:13 pm 18:13 Cloudy with Thunderstorms 81 27.2 72 22.2 74 74 N 8 13 30.03 1017 10 16 N/A
6:27 pm 18:27 Cloudy with Thunderstorms 79 26.1 71 21.7 77 77 N 14 22 30.03 1017 10 16 N/A
6:52 pm 18:52 Cloudy with Thunderstorms 76 24.4 71 21.7 85 85 NNE 16 26 30.04 1017 10 16 N/A
7:24 pm 19:24 Cloudy with Thunderstorms 75 23.9 73 22.8 94 94 NE 14 22 30.06 1018 3 4 0.03 0.76
7:32 pm 19:32 Cloudy with Thunderstorms 74 23.3 72 22.2 94 94 NE 13 20 30.06 1018 5 8 0.04 1.02
7:41 pm 19:41 Cloudy with Light Rain 74 23.3 72 22.2 94 94 ENE 12 19 30.06 1018 7 11 0.04 1.02
7:52 pm 19:52 Cloudy with Light Rain 74 23.3 72 22.2 94 94 NE 14 22 30.05 1018 8 13 0.04 1.02
8:52 pm 20:52 Cloudy with Light Rain 73 22.8 72 22.2 96 96 NE 8 13 30.07 1018 10 16 N/A
9:30 pm 21:30 Cloudy 73 22.8 71 21.7 94 94 NE 13 20 30.06 1018 10 16 N/A
9:52 pm 21:52 Cloudy 73 22.8 71 21.7 94 94 NE 12 19 30.07 1018 10 16 N/A
10:40 pm 22:40 Cloudy 73 22.8 71 21.7 94 94 NE 14 22 30.06 1018 10 16 N/A
10:52 pm 22:52 Cloudy 73 22.8 70 21.1 90 90 NE 13 20 30.07 1018 10 16 N/A
11:35 pm 23:35 Cloudy 72 22.2 70 21.1 94 94 NE 13 20 30.06 1018 10 16 N/A
11:52 pm 23:52 Cloudy 72 22.2 70 21.1 94 94 NE 12 19 30.07 1018 10 16 N/A

Powered by AerisWeather